User: anonymous   Login
Location: Unspecified
(0.0000°N, 0.0000°E)
Time: 00:19:47
(UTC+00:00)
Language:

UNISAT 2 - Orbit

View from above orbital plane
View from above orbital plane
View from above satellite
View from above satellite

Ground track
Ground track

The orbit data is extracted from the following two-line orbital elements,

1 27608U 02058D   17231.10013444  .00000013  00000-0  21361-4 0  9990
2 27608  64.5541 219.4295 0021513  26.3247 333.8944 14.77826895789935
Epoch (UTC): 19 August 2017 02:24:11
Eccentricity: 0.0021513
inclination: 64.5541°
perigee height: 621 km
apogee height: 651 km
right ascension of ascending node: 219.4295°
argument of perigee: 26.3247°
revolutions per day: 14.77826895
mean anomaly at epoch: 333.8944°
orbit number at epoch: 78993

The dashed part of the orbit path shows where the satellite is in the earth's shadow,  

DLR